Location: Newark
(16.3678°N, 77.8722°E)
Time: 07:32:57
(UTC+00:00)

S-56A Canister/Altair - Pass Details

Date: 11 December 2019
Orbit: 634 x 2498 km, 38.9° (Epoch: 27 January)

Event Time Altitude Azimuth Distance (km) Brightness Sun altitude
Rises 03:17:49 0° 241° (WSW) 4,935 11.4 26.6°
Reaches altitude 10° 03:20:42 10° 243° (WSW) 4,163 11.1 27.1°
Maximum altitude 03:32:35 70° 326° (NW) 2,388 10.2 29.3°
Drops below altitude 10° 03:47:43 10° 48° (NE) 5,159 11.9 32.1°
Sets 03:51:47 0° 51° (NE) 6,137 12.2 32.8°
